Location: Austin
(30.3000°N, 97.7500°W)
Time: 23:39:29
(UTC-05:00)

Okean O Rocket - Pass Details

Date: 05 September 2024
Orbit: 618 x 638 km, 98.1° (Epoch: 14 September)

Event Time Altitude Azimuth Distance (km) Brightness Sun altitude
Exits shadow 22:38:08 22° 298° (WNW) 1,396 3.9 -35.1°
Drops below altitude 10° 22:40:18 10° 322° (NW) 2,029 4.9 -35.5°
Sets 22:42:46 0° 334° (NNW) 2,942 5.8 -35.9°
